Location: Battersea Observatory
(44.4318°N, 76.3841°W)
Time: 03:06:59
(UTC-05:00)

Explorer 7 - Visible Passes

Search period start: 28 January 2022 00:00
Search period end: 07 February 2022 00:00
Orbit: 483 x 674 km, 50.3° (Epoch: 27 January)

Date Brightness Start Highest point End Pass type
(mag) Time Alt. Az. Time Alt. Az. Time Alt. Az.
31 Jan 9.8 06:08:00 10° SSE 06:09:34 12° SE 06:11:09 10° ESE visible
01 Feb 9.4 06:10:21 10° S 06:13:08 19° SE 06:16:02 10° E visible
02 Feb 8.5 06:13:25 10° SSW 06:16:47 30° SE 06:20:18 10° ENE visible
03 Feb 7.6 06:16:50 10° SW 06:20:29 47° SE 06:24:20 10° ENE visible
04 Feb 9.4 04:43:31 12° SSE 04:44:29 13° SE 04:46:14 10° ESE visible
04 Feb 6.9 06:20:29 10° SW 06:24:16 72° SSE 06:28:15 10° ENE visible
05 Feb 8.8 04:47:52 20° SE 04:48:04 20° SE 04:50:59 10° E visible
05 Feb 6.6 06:24:17 10° WSW 06:28:06 79° NNW 06:32:06 10° ENE visible
06 Feb 8.2 04:52:02 31° SE 04:52:02 31° SE 04:55:12 10° ENE visible
06 Feb 6.8 06:28:18 11° W 06:31:59 58° NNW 06:35:56 10° ENE visible
